This demonstration page uses our WeatherBlox Daily Observations layout. Learn more.

Left ArrowRight Arrow

Hourly Observations for March 20, 2019

Temp ( °F °C ) Dew Point ( °F °C ) Humidity (%) Winds ( mph kmh ) Pressure ( in mb ) Visibility ( mi km ) Precip ( " mm )
12:05 am 00:05 Mostly Cloudy with Fog 36 2.2 34 1.1 93 93 NNW 5 7 30.23 1024 1 1 0.00 0.00
12:09 am 00:09 Mostly Cloudy with Fog 36 2.2 34 1.1 93 93 NNW 5 7 30.23 1024 1 1 0.00 0.00
12:14 am 00:14 Mostly Cloudy with Fog 36 2.2 34 1.1 93 93 NNW 7 11 30.23 1024 0 0 0.00 0.00
12:37 am 00:37 Cloudy with Fog 37 2.8 35 1.7 93 93 N 3 6 30.23 1024 1 1 0.00 0.00
12:52 am 00:52 Cloudy with Fog 38 3.3 36 2.2 93 93 ESE 3 6 30.20 1023 1 1 0.00 0.00
1:24 am 01:24 Cloudy with Mist and Fog 37 2.8 35 1.7 93 93 NNW 5 7 30.22 1023 1 2 0.00 0.00
1:44 am 01:44 Cloudy with Mist and Fog 39 3.9 37 2.8 93 93 NNW 9 15 30.22 1023 2 3 0.00 0.00
1:52 am 01:52 Cloudy with Mist and Fog 39 3.9 36 2.2 89 89 NNW 15 24 30.19 1023 4 6 0.00 0.00
2:44 am 02:44 Cloudy with Mist and Fog 38 3.3 34 1.1 86 86 NNW 12 19 30.22 1023 5 8 0.00 0.00
2:52 am 02:52 Cloudy with Mist and Fog 38 3.3 34 1.1 86 86 NNW 10 17 30.20 1023 5 8 0.00 0.00
3:52 am 03:52 Cloudy with Mist and Fog 36 2.2 32 0 86 86 NW 13 20 30.19 1022 5 8 0.00 0.00
4:52 am 04:52 Cloudy with Mist and Fog 35 1.7 32 0 89 89 NW 10 17 30.18 1022 5 8 0.00 0.00
5:52 am 05:52 Cloudy with Mist and Fog 35 1.7 31 -0.6 85 85 NW 13 20 30.16 1022 6 10 0.00 0.00
6:31 am 06:31 Cloudy with Mist and Fog 35 1.7 31 -0.6 85 85 NW 10 17 30.21 1023 6 10 0.00 0.00
6:52 am 06:52 Cloudy with Mist and Fog 35 1.7 31 -0.6 85 85 NW 13 20 30.18 1022 6 10 0.00 0.00
7:52 am 07:52 Cloudy 36 2.2 30 -1.1 79 79 WNW 9 15 30.18 1022 7 11 0.00 0.00
8:40 am 08:40 Partly Cloudy 36 2.2 31 -0.6 82 82 W 9 15 30.19 1022 10 16 0.00 0.00
8:52 am 08:52 Partly Cloudy 37 2.8 31 -0.6 79 79 WSW 9 15 30.16 1022 10 16 0.00 0.00
10:52 am 10:52 Mostly Sunny 44 6.7 33 0.6 65 65 WSW 10 17 30.12 1020 10 16 0.00 0.00
12:52 pm 12:52 Sunny 53 11.7 32 0 45 45 W 15 24 30.07 1018 10 16 0.00 0.00
1:52 pm 13:52 Mostly Sunny 56 13.3 33 0.6 42 42 W 12 19 30.04 1017 10 16 0.00 0.00
2:52 pm 14:52 Mostly Sunny 59 15 34 1.1 39 39 WNW 16 26 30.02 1017 10 16 0.00 0.00
3:52 pm 15:52 Partly Cloudy 58 14.4 34 1.1 41 41 NNW 13 20 30.01 1016 10 16 0.00 0.00
4:52 pm 16:52 Partly Cloudy 54 12.2 37 2.8 53 53 N 15 24 30.03 1017 10 16 0.00 0.00
5:52 pm 17:52 Mostly Sunny 54 12.2 38 3.3 55 55 NNW 15 24 30.04 1017 10 16 0.00 0.00
6:52 pm 18:52 Mostly Sunny 50 10 37 2.8 61 61 NNW 14 22 30.06 1018 10 16 0.00 0.00
7:52 pm 19:52 Mostly Clear 46 7.8 36 2.2 68 68 NNW 10 17 30.09 1019 10 16 0.00 0.00
8:52 pm 20:52 Mostly Cloudy 47 8.3 36 2.2 66 66 NNW 13 20 30.11 1020 10 16 0.00 0.00
9:52 pm 21:52 Mostly Clear 45 7.2 35 1.7 68 68 NNW 15 24 30.13 1020 10 16 0.00 0.00
10:52 pm 22:52 Partly Cloudy 44 6.7 35 1.7 71 71 NNW 17 28 30.15 1021 10 16 0.00 0.00
11:22 pm 23:22 Mostly Cloudy 43 6.1 35 1.7 74 74 N 18 30 30.17 1022 10 16 0.00 0.00
11:52 pm 23:52 Mostly Cloudy 42 5.6 33 0.6 71 71 N 22 35 30.16 1021 10 16 0.00 0.00

Powered by AerisWeather